#timestamp,LO_Frequency,Hit,StdDev 
1580706675.7,286047013.5,P
1580706695.6,286047013.7,P
1580706715.4,286047011.0,P
1580706735.2,286047014.0,Y
1580706755.1,286047000.1,P
1580706756.0,286047000.1,N
1580706775.8,286047000.7,N
1580706825.7,286047000.5,E
1580706835.6,286047001.1,N
1580706855.4,286046998.3,P
1580706875.3,286046998.2,N
1580706895.1,286047001.1,N
1580706896.0,286047001.1,N
1580706915.8,286046998.6,N
1580706935.7,286047001.0,N
1580706955.5,286047000.8,N
1580706975.3,286047000.4,N
1580706995.2,286047000.9,N
1580707015.0,286047000.7,N
1580707015.9,286047000.7,N
1580707035.8,286046998.1,N
1580707055.6,286047002.3,N
1580707075.4,286047001.5,N
1580707095.3,286047003.8,N
1580707115.1,286047003.2,N
1580707135.8,286047003.7,N
1580707155.7,286047003.3,N
1580707175.5,286047003.1,N
1580707195.4,286047005.9,Y
1580707215.2,286047003.5,P
1580707235.0,286047004.4,P
1580707235.9,286047004.4,P
1580707255.8,286047003.6,N
1580707275.6,286047005.4,Y
1580707295.5,286047000.0,P
1580707315.3,286047002.3,N
1580707335.1,286047001.4,N
1580707355.9,286047003.9,Y
1580707375.7,286047000.1,P
1580707395.5,286047002.8,P
1580707415.4,286047000.1,N
1580707435.2,286047002.5,N
1580707455.1,286047001.7,N
1580707456.0,286047001.7,N
1580707475.8,286047003.3,Y
1580707495.6,286047001.7,P
1580707515.5,286047004.2,P
1580707535.3,286047001.8,N
1580707555.2,286047002.5,N
1580707575.9,286047001.7,N
1580707595.7,286047001.7,N
1580707615.6,286047001.7,N
1580707635.4,286047004.3,Y
1580707655.2,286047000.0,P
1580707675.1,286047002.8,N
1580707676.0,286047002.8,N
1580707695.8,286047002.6,N
1580707715.7,286047002.0,N
1580707735.5,286047002.3,N
1580707755.3,286047001.6,N
1580707775.2,286047002.0,N
1580707795.0,286047001.7,N
1580707795.9,286047001.7,N
1580707815.8,286047003.5,Y
1580707835.6,286047000.1,P
1580707855.4,286046999.7,N
1580707875.3,286047002.5,N
1580707895.1,286047000.1,N
1580707915.8,286046999.8,N
1580707935.7,286047001.9,N
1580707955.5,286047002.2,N
1580707975.4,286047001.8,N
1580707995.2,286047003.5,Y
1580708015.0,286047004.4,P
1580708015.9,286047004.4,N
1580708035.8,286047004.1,N
1580708055.6,286047001.7,N
1580708075.4,286047001.3,N
1580708095.3,286047003.9,N
1580708115.1,286047003.5,N
1580708135.9,286047005.6,Y
1580708155.7,286047004.2,P
1580708175.5,286047002.1,P
1580708195.4,286047001.3,N
1580708215.2,286047004.4,Y
1580708235.0,286047000.5,P
1580708235.9,286047000.5,N
1580708255.8,286047000.5,N
1580708275.6,286047000.8,N
1580708295.5,286047000.3,N
1580708315.3,286047000.3,N
1580708335.1,286047002.7,Y
1580708355.9,286046999.7,P
1580708375.7,286047001.6,N
1580708395.5,286047002.0,N
1580708415.4,286047002.1,N
1580708435.2,286047004.2,Y
1580708455.1,286047002.6,P
1580708456.0,286047002.6,P
1580708475.8,286047002.6,P
1580708495.7,286047002.3,Y
1580708515.5,286047001.0,P
1580708535.3,286047000.6,N
1580708555.2,286047000.5,N
1580708575.0,286047002.6,Y
1580708575.9,286047002.6,P
1580708595.8,286047001.5,N
1580708615.6,286047003.9,P
1580708635.4,286047004.2,Y
1580708655.3,286047002.0,P
1580708675.1,286047001.9,P
1580708695.8,286047002.2,P
1580708715.7,286047001.9,Y
1580708735.5,286046998.1,P
1580708755.4,286046999.4,N
1580708775.2,286046999.5,N
1580708795.0,286046996.9,N
1580708795.9,286046996.9,N
1580708815.8,286046999.5,N
1580708835.6,286046997.6,N
1580708855.5,286046994.9,Y
1580708875.3,286046998.8,P
1580708895.1,286046998.5,P
1580708915.9,286046998.5,P
1580708935.7,286046998.5,Y
1580708955.6,286047000.2,P
1580708975.4,286046999.9,N
1580708995.2,286046999.9,N
1580709015.1,286047002.0,Y
1580709016.0,286047002.0,P
1580709035.8,286047001.5,N
1580709055.7,286047001.3,N
1580709075.5,286047004.0,Y
1580709095.3,286047002.4,P
1580709115.2,286047001.7,N
1580709135.0,286047001.8,P
1580709135.9,286047001.8,Y
1580709155.8,286047002.7,P
1580709175.6,286047004.0,P
1580709195.4,286047003.5,P
1580709215.3,286047003.7,Y
1580709235.1,286047000.3,P
1580709255.8,286047001.9,N
1580709275.7,286046999.9,N
1580709295.5,286047000.6,N
1580709315.4,286047000.2,N
1580709335.2,286047002.7,N
1580709355.0,286047001.3,N
1580709355.9,286047001.3,N
1580709375.8,286047004.4,Y
1580709395